Dewpoint
62 63 64 64 63 63 63 60 60 58 58 57 58 57 56 57 57 58 57 57 58 57 56 56 55 55 55 53 51 55 56 56 56 57 56 54 54 55 55 54 54 55 59 60 59 59 59 59 59 60 59 57 56 54 51 49 48 46 47 46 46 48 49 49 45 44 45 44 40 33 36 39 34 35 34 38 41 42 43 42 41 42 41 40 41
62 62 63 64 63 64 62 61 59 58 58 57 57 56 56 57 58 57 57 57 56 54 55 56 56 55 52 50 51 52 54 54 54 55 53 54 55 53 53 53 54 56 60 58 58 57 60 58 58 59 58 54 53 48 48 48 45 43 42 44 41 43 46 40 42 42 43 44 38 33 35 35 33 34 38 40 41 41 38 40 40 40 39 41 40
61 62 63 64 64 63 61 61 60 59 58 58 58 56 57 57 56 57 56 57 56 55 55 56 55 54 51 52 50 51 53 53 54 53 54 53 51 52 53 54 55 57 59 58 56 57 57 59 57 58 56 54 52 51 50 46 43 42 45 44 44 44 41 39 41 42 42 40 40 34 37 35 40 34 35 37 38 38 37 38 36 38 39 42 40
61 62 62 63 64 63 62 61 60 59 59 58 58 58 56 58 55 55 55 55 53 54 54 54 55 53 52 49 49 50 52 52 52 51 50 50 50 51 52 53 54 55 57 57 56 58 58 58 59 59 56 53 51 49 48 48 47 45 46 48 48 47 49 48 47 44 44 40 41 32 36 37 37 35 35 35 36 37 37 37 36 37 38 38 40
60 62 63 64 63 64 63 60 60 59 59 59 59 57 58 56 56 54 55 53 52 54 53 54 54 52 51 47 47 49 51 51 49 49 50 51 50 51 51 50 52 52 54 55 58 55 56 56 56 56 54 52 52 49 49 49 45 47 47 46 47 49 50 48 47 44 44 43 44 41 40 37 37 38 35 35 35 36 36 37 37 37 39 39 38
58 60 62 62 63 63 63 61 59 58 58 58 58 58 57 56 55 57 52 51 52 53 53 54 51 49 47 45 45 45 47 48 47 48 49 51 52 51 52 52 52 51 52 53 53 54 54 52 52 53 53 53 53 52 52 51 48 50 49 47 45 48 51 49 49 48 45 44 46 44 44 40 39 41 38 39 39 37 36 36 37 38 38 40 39
59 61 62 61 62 63 63 61 57 57 58 58 58 57 55 54 52 51 50 51 51 53 53 51 51 47 46 46 44 45 47 48 49 50 50 50 50 50 52 52 52 52 51 51 52 53 53 53 55 55 55 55 54 53 54 55 54 53 52 51 48 49 49 49 46 48 48 48 47 47 44 43 45 41 38 38 39 39 41 40 39 37 41 41 41
60 61 61 60 60 61 60 62 58 57 57 57 56 57 55 54 52 51 51 50 50 51 51 50 50 47 47 45 45 47 47 48 48 49 48 50 51 51 51 52 51 51 52 51 52 51 52 52 52 52 52 54 55 54 55 53 53 52 50 51 51 50 50 49 49 48 48 49 47 47 44 44 44 47 41 39 39 39 39 42 42 42 43 45 45
60 59 59 60 60 58 60 61 62 58 56 59 56 56 56 54 53 51 51 51 52 51 51 51 50 48 46 48 46 48 49 51 52 54 50 50 51 51 50 48 50 50 50 50 50 50 50 51 51 54 55 56 50 51 52 53 57 51 53 52 51 50 49 49 50 47 47 48 47 49 50 45 45 46 44 44 43 41 43 45 44 44 43 44 43
59 59 59 58 59 59 59 59 59 60 56 55 55 56 55 55 53 51 50 51 51 51 50 51 50 50 50 49 49 51 52 58 48 43 45 54 51 47 51 51 50 50 50 50 50 49 50 52 56 56 55 54 49 45 43 45 48 54 55 56 53 52 51 51 49 48 49 47 47 46 47 48 45 47 46 48 48 47 45 46 44 43 45 45 49
58 56 56 57 58 58 58 59 59 60 58 54 55 55 55 54 52 51 52 52 53 52 51 49 50 50 49 50 52 54 58 54 42 40 41 42 52 54 51 51 50 50 50 50 49 50 50 50 53 57 57 55 60 43 43 43 43 43 43 45 49 56 53 51 50 50 47 48 48 46 46 47 48 50 47 45 48 47 46 47 46 45 44 43 42
57 56 56 58 59 59 59 59 58 58 57 56 58 56 55 54 52 52 52 52 52 54 53 53 53 52 51 51 53 57 54 42 40 41 41 41 43 52 55 51 51 50 50 49 49 48 48 49 51 52 51 52 51 55 52 44 43 43 43 43 42 42 42 55 53 50 51 49 49 47 48 49 46 48 46 47 46 48 48 47 46 45 45 43 43
57 57 57 58 58 59 59 58 58 58 57 57 57 57 57 58 53 52 54 55 55 55 55 55 55 55 54 57 57 54 52 41 40 40 41 40 40 46 53 53 50 49 49 49 48 49 50 50 51 54 48 57 53 54 52 54 45 42 44 44 43 42 41 41 41 54 54 53 52 51 50 49 51 51 50 53 53 50 48 44 47 47 46 44 44
58 58 57 58 58 58 58 58 58 58 57 57 58 59 58 58 58 58 58 58 58 58 58 58 57 57 58 57 54 51 48 42 39 40 40 40 39 42 54 56 53 49 47 48 50 50 51 53 53 56 57 56 53 56 53 55 55 55 54 53 53 54 42 40 40 39 47 53 53 52 53 53 52 53 56 56 55 53 53 52 51 48 49 49 53
53 54 55 57 57 57 56 55 55 56 58 59 58 58 59 59 60 60 60 60 58 57 57 57 58 57 57 54 52 50 46 39 39 39 39 39 39 42 56 57 54 53 53 53 54 55 56 56 57 57 58 58 61 59 58 57 59 59 59 58 58 56 57 57 56 53 53 53 53 53 54 56 59 58 58 58 58 57 57 57 56 54 55 54 52
49 50 52 52 55 57 55 54 54 55 57 57 58 58 59 59 59 60 59 59 59 60 60 59 58 57 58 54 53 50 46 38 38 39 39 39 39 55 57 56 54 52 52 54 56 57 57 57 58 57 57 59 53 44 50 60 56 57 58 58 58 60 58 52 40 42 57 59 57 56 54 53 43 51 52 52 52 55 56 54 53 53 51 49 48
50 50 50 50 50 52 53 55 57 55 55 55 56 57 58 59 60 61 60 59 59 58 57 56 57 57 57 55 52 49 47 40 38 38 39 38 46 57 59 55 53 54 56 55 56 58 59 58 58 57 60 58 42 40 39 46 56 55 55 57 58 57 58 58 46 40 39 40 39 40 40 40 41 41 41 42 51 51 51 50 51 51 50 47 48
46 47 47 50 52 48 48 48 50 52 51 52 53 53 56 58 59 60 59 58 56 55 55 53 53 53 53 51 49 47 45 41 38 38 39 38 41 55 57 55 55 55 55 56 56 58 56 53 56 57 58 52 38 39 38 48 56 56 56 56 55 55 56 58 55 55 38 39 38 38 40 39 40 40 40 42 44 46 51 49 51 49 48 48 48
39 41 43 44 45 46 46 47 47 48 48 50 52 51 53 53 52 53 53 52 53 52 51 51 51 52 53 51 48 46 44 42 38 37 38 38 43 53 55 52 53 57 55 59 57 56 57 50 45 46 48 43 38 38 38 44 55 56 56 56 55 55 56 56 57 55 54 54 53 55 52 44 50 51 49 43 45 48 52 52 51 49 48 47 46
38 39 40 41 42 42 44 44 45 45 45 47 47 48 49 48 48 49 49 49 53 53 52 50 50 50 49 49 50 48 45 42 39 37 38 38 38 47 54 52 53 53 53 51 50 50 55 53 46 37 38 38 38 37 38 37 48 54 56 55 53 57 56 56 58 57 55 54 54 53 53 53 52 52 51 50 50 51 54 54 52 50 49 47 46
38 39 40 41 41 42 42 44 44 43 44 46 47 51 51 49 49 47 48 47 49 52 51 49 47 46 45 45 45 47 47 44 41 37 38 38 39 44 47 47 49 51 50 48 49 50 50 53 48 38 37 37 37 36 37 37 37 47 52 54 52 49 46 55 58 47 54 54 53 52 51 49 50 51 50 51 49 49 50 52 53 52 50 49 48
38 37 38 39 40 42 43 43 44 44 44 44 44 45 46 46 47 47 47 47 47 46 45 45 45 46 47 46 43 41 43 44 43 38 37 37 37 39 49 48 44 49 50 49 51 51 49 50 44 39 36 36 36 36 36 37 36 45 52 41 40 39 50 52 55 54 52 52 50 47 48 47 47 48 48 48 47 46 49 49 50 49 48 48 49
37 38 37 37 38 38 41 42 43 43 43 43 43 42 42 44 45 46 46 46 47 47 47 46 46 44 45 44 44 42 41 41 39 41 37 37 37 37 36 41 37 47 47 46 47 46 46 46 44 39 36 36 36 36 36 36 37 46 40 39 39 38 43 51 51 53 50 48 47 47 47 46 47 47 45 45 46 48 48 47 45 44 41 42 43
37 38 38 38 38 37 36 38 40 40 41 41 41 42 41 40 40 41 42 42 41 42 41 43 42 42 41 40 44 43 41 39 40 40 40 37 37 37 37 36 37 44 45 46 44 45 43 43 41 36 36 36 36 36 36 36 41 39 37 38 38 40 49 50 50 51 48 48 48 48 48 47 47 47 45 47 46 47 45 44 43 42 40 40 38
37 36 37 37 38 37 38 38 39 39 38 39 39 38 40 40 38 38 39 38 38 38 36 38 39 40 40 42 40 41 44 43 41 41 39 37 37 37 36 35 37 34 47 40 39 41 40 36 36 36 36 36 36 36 37 37 36 35 36 36 40 47 49 49 50 50 49 48 48 49 48 46 46 46 47 46 46 45 43 43 42 41 40 39 38
37 36 36 36 36 35 37 36 37 38 39 37 38 38 39 37 37 37 37 37 36 37 34 33 33 36 37 38 37 38 39 39 42 44 41 40 39 37 37 37 38 38 40 44 37 34 34 34 35 34 35 37 43 46 40 44 38 36 36 38 48 46 47 48 48 48 47 47 47 47 47 46 46 47 47 47 44 42 42 41 39 38 37 36 35
37 37 37 36 36 35 35 36 35 35 36 36 36 37 37 37 38 36 37 37 37 35 35 34 35 34 36 36 35 34 36 38 38 37 36 36 35 37 51 50 39 37 42 45 41 39 50 42 41 38 37 36 37 37 38 40 43 42 43 44 46 46 45 45 44 44 45 48 46 46 47 50 53 47 47 44 43 42 41 38 37 35 36 34 33
37 37 36 35 34 34 34 33 34 35 34 34 33 34 35 38 37 36 35 36 38 39 39 36 35 37 36 36 35 34 34 37 36 36 37 36 37 36 37 37 38 37 39 39 39 40 39 36 39 42 44 44 43 42 42 43 39 36 38 38 38 39 42 42 42 41 40 41 42 46 47 46 43 42 42 40 40 37 37 36 36 34 34 34 33
36 36 36 36 35 35 35 35 35 35 36 36 35 34 33 34 37 37 36 34 35 36 38 38 36 38 37 37 37 37 37 35 37 35 35 32 34 37 38 37 38 38 38 34 38 41 37 33 32 32 32 33 33 35 34 33 34 36 38 39 39 38 36 37 38 39 43 44 44 45 40 44 43 43 40 40 38 36 36 36 35 34 35 34 32
36 34 33 34 35 35 36 34 35 34 35 35 37 34 33 34 35 33 33 35 34 34 34 36 36 36 38 37 36 35 35 37 34 34 33 34 34 34 33 33 34 35 35 34 35 38 34 34 33 32 33 32 31 29 31 32 32 32 33 34 37 36 39 40 43 42 40 41 41 40 38 39 37 36 35 34 36 35 34 34 36 38 35 35 35
33 33 33 32 32 34 33 33 34 34 34 34 36 36 35 33 34 34 35 35 34 34 34 34 34 34 36 37 37 33 34 34 34 34 34 34 34 34 35 35 35 35 34 35 37 37 34 30 29 31 30 31 32 32 32 33 32 33 33 34 35 36 37 41 41 39 36 37 36 36 36 36 35 35 35 34 34 34 36 38 39 39 38 38 37
32 32 32 32 32 32 32 32 34 33 33 34 33 34 35 35 34 34 34 34 35 34 34 34 34 34 34 34 35 38 36 34 34 34 34 34 34 34 34 34 35 34 34 33 35 33 29 30 29 30 32 32 32 31 33 33 33 33 33 32 33 35 37 39 39 40 38 36 34 33 33 34 35 34 34 34 34 36 36 35 36 34 36 40 40
34 35 33 32 31 31 30 32 33 33 33 33 34 34 33 34 35 35 34 34 34 34 34 34 34 34 34 34 34 33 32 33 34 34 34 34 33 34 33 33 34 35 32 35 34 30 33 34 33 33 32 32 33 33 33 35 34 34 34 34 33 34 37 40 38 37 36 36 35 33 32 32 32 33 33 34 34 33 33 34 36 36 35 33 30
33 32 33 34 31 32 32 33 31 31 31 31 32 32 33 34 33 34 36 35 35 34 34 34 34 34 34 34 35 34 34 34 34 34 34 34 33 33 33 35 34 34 34 37 33 32 33 33 34 35 35 35 36 36 35 35 36 35 35 35 36 36 37 39 40 35 34 34 34 33 33 34 33 33 34 34 34 34 32 32 32 32 30 30 29
33 31 31 33 32 32 31 30 31 31 31 32 31 32 35 34 33 33 33 32 34 36 36 36 34 34 36 35 34 34 34 34 34 34 34 34 33 34 33 37 35 34 40 35 32 32 33 35 35 35 36 37 37 37 37 39 37 36 36 36 36 35 35 35 35 36 35 35 35 34 34 34 35 34 33 32 31 30 29 29 30 30 30 29 29
30 29 31 33 32 33 32 33 32 32 32 32 33 34 32 32 31 32 32 33 32 31 32 34 35 34 34 34 34 34 34 34 34 34 33 33 33 34 32 28 29 30 31 31 31 32 34 34 34 36 36 37 38 37 38 38 38 37 36 35 34 35 35 35 34 34 34 34 33 33 33 32 32 31 31 32 33 32 32 31 31 30 30 31 30
30 29 29 32 32 32 33 33 34 34 33 30 30 31 32 32 31 31 32 31 33 31 29 33 37 38 36 36 35 35 34 34 34 34 34 33 33 34 32 31 31 31 31 33 32 32 32 33 33 35 35 36 36 37 37 37 37 37 35 34 34 34 34 34 34 33 32 32 32 33 33 32 32 32 31 31 30 30 30 30 29 29 29 30 30
29 27 32 34 34 33 32 32 32 32 34 31 31 31 30 31 31 30 30 30 30 30 30 31 31 28 29 34 39 35 36 34 34 35 34 34 30 31 32 32 32 33 32 32 33 32 33 33 34 35 35 35 35 35 35 35 35 34 34 34 33 33 33 33 34 34 33 32 32 32 32 32 32 31 31 31 30 30 29 29 28 28 28 29 29
32 31 32 32 31 31 31 31 32 32 32 31 31 30 30 30 30 30 30 30 29 29 28 27 29 31 32 32 34 37 36 32 31 29 29 30 32 33 33 34 33 32 32 32 32 31 32 32 33 34 33 33 33 33 34 34 34 34 33 33 33 34 34 33 33 33 33 33 32 32 32 32 31 31 30 29 29 29 29 29 29 28 27 27 27
28 28 31 31 32 29 30 31 31 33 31 33 30 30 29 30 31 30 30 29 29 29 30 29 31 33 35 35 34 34 33 30 30 29 31 32 32 34 33 33 32 32 32 32 33 31 31 31 31 33 32 32 32 32 33 33 34 33 33 33 33 34 34 33 33 33 32 32 32 32 31 31 31 31 31 29 28 27 27 27 27 26 26 26 26
28 30 28 29 30 31 31 29 31 32 33 32 31 32 31 30 30 30 31 31 31 30 30 31 32 34 34 33 33 33 36 31 31 32 32 32 33 33 33 33 32 32 31 30 31 31 31 30 31 31 32 31 32 32 32 33 33 32 33 33 33 33 33 33 32 32 31 31 31 31 31 31 30 29 27 26 27 27 27 26 25 25 25 25 25
28 25 24 27 32 29 30 29 29 30 31 31 32 31 30 31 30 30 29 30 30 30 31 31 33 33 32 32 32 33 35 31 31 31 32 32 32 32 32 33 33 32 32 32 32 32 31 31 31 31 32 32 31 31 32 32 32 32 32 32 32 32 31 31 30 30 30 29 28 28 27 26 26 27 26 28 26 26 25 25 25 26 25 25 26
30 26 26 26 27 26 28 29 30 30 29 31 31 30 31 31 30 28 29 30 29 29 30 31 32 33 33 32 33 32 31 30 31 31 30 30 31 31 32 32 32 32 32 32 31 31 30 30 30 30 31 31 32 32 31 31 32 32 32 32 31 31 31 30 30 30 29 29 29 29 29 28 27 27 26 25 25 25 25 26 27 26 25 25 26
29 28 27 24 27 26 28 28 30 30 30 31 31 31 30 30 28 29 29 31 31 30 29 29 31 31 32 32 33 32 28 28 29 29 30 30 31 31 31 31 31 30 29 28 29 28 28 28 27 28 30 31 31 32 32 32 31 32 32 31 31 31 31 31 31 31 30 30 29 28 28 27 26 26 26 26 26 26 26 27 26 26 25 25 25
30 29 28 25 24 25 25 26 29 30 30 31 32 31 30 29 29 28 29 29 29 29 31 29 30 30 29 29 30 31 31 30 29 29 29 29 30 30 30 29 29 28 27 28 26 27 26 25 25 26 26 26 27 28 28 30 30 31 30 30 30 29 29 29 29 29 29 29 28 27 26 26 26 26 26 26 26 26 25 27 27 27 25 25 25
29 28 27 27 25 26 25 25 22 28 30 32 30 31 30 29 29 29 28 28 28 29 30 29 30 29 29 29 29 28 29 29 30 30 30 29 29 28 28 28 28 29 29 28 28 27 26 27 25 25 25 25 27 26 25 25 26 26 27 27 27 28 29 30 29 28 28 28 27 28 27 25 24 26 25 25 25 25 26 26 26 26 26 26 26
30 28 27 27 27 25 25 25 26 25 26 27 28 29 29 29 30 28 29 29 28 28 27 27 30 28 31 29 29 30 29 29 30 29 29 30 30 29 30 30 29 30 30 29 29 27 27 26 27 26 26 27 27 28 28 25 25 25 26 26 27 28 30 29 31 31 29 29 28 26 26 25 23 23 26 25 25 26 27 26 26 27 27 27 26
28 27 26 25 26 26 26 25 22 18 25 23 26 26 27 28 28 27 28 28 28 26 26 26 26 27 27 28 30 30 29 30 29 29 27 28 29 31 31 31 30 29 29 30 29 27 26 27 27 28 26 27 27 28 28 28 28 28 28 29 28 28 29 29 31 31 31 31 29 26 26 26 26 26 27 27 27 27 27 26 26 26 27 27 26
27 27 27 27 25 25 24 24 24 25 25 27 26 26 25 26 25 26 26 26 25 27 28 27 26 26 28 26 25 25 27 28 26 27 27 27 29 30 29 30 29 28 27 28 27 27 27 27 27 27 27 26 27 27 28 28 27 27 28 28 27 28 28 29 30 30 30 32 30 28 28 29 27 27 27 28 27 27 27 28 27 26 26 26 26
28 27 26 24 25 25 24 23 22 23 26 24 26 26 25 27 25 25 24 24 23 26 24 25 26 27 26 26 27 27 28 27 27 27 27 27 29 29 30 29 28 27 26 26 26 26 26 27 28 27 27 26 26 26 23 22 22 21 23 25 26 27 27 28 30 30 28 29 31 29 28 28 28 28 28 28 28 27 27 26 26 26 26 26 26
29 28 26 24 23 25 24 24 22 22 25 26 27 27 26 27 27 26 26 26 27 26 26 26 26 26 27 26 26 27 26 27 27 28 28 29 29 29 29 28 27 28 27 26 25 25 26 27 26 24 24 23 21 20 20 18 20 22 23 23 25 25 25 25 27 28 29 29 29 27 27 28 28 27 27 27 26 25 24 25 25 25 25 25 25